ZHONGXING-20

Last updated on Fri Jan 12 2018 00:19:06 GMT+0000 (Coordinated Universal Time)

1 28082U 03052A 18011.19785584 -.00000214 00000-0 00000-0 0 9996 2 28082 3.9150 70.3602 0004791 215.7448 246.1194 0.98749697 51888
UTC large
Height (km)
Speed (km/s)
/
Latitude / Longitude
Inclination (degrees)
Orbital Period (minutes)
Azimuth
Elevation
Range (km)
Doppler Factor

Next 0 passes for location: London (51.5072 / 0.1276)

Sorry there are no passes over London.